Location: Remedello Sotto
(45.2500°N, 10.3667°E)
Time: 10:37:53
(UTC+00:00)

Cosmos 1825 - Pass Details

Date: 03 February 2023
Orbit: 480 x 487 km, 82.5° (Epoch: 31 March)

Event Time Altitude Azimuth Distance (km) Brightness Sun altitude
Rises 18:05:48 0° 198° (SSW) 2,570 6.1 -17.4°
Reaches altitude 10° 18:07:56 10° 204° (SSW) 1,695 5.2 -17.8°
Maximum altitude 18:11:34 52° 281° (WNW) 625 2.9 -18.4°
Drops below altitude 10° 18:15:15 10° 359° (N) 1,715 4.8 -19.1°
Sets 18:17:25 0° 5° (N) 2,604 5.7 -19.4°
